CW9648 Weather Reports


Display with metric or nautical units.
time (UTC)temp
F
wind
direction
speed
MPH
gust
MPH
rain 1hr
in
rain 24hr
in
rain mn
in
humidity
%
barometer
mb
20260509034503 70 132 1.0 5.0 0.00 0.41 0.41 93 1011.2
20260509034004 70 163 1.0 4.0 0.00 0.41 0.41 93 1011.1
20260509033503 70 161 1.0 5.0 0.00 0.41 0.41 93 1011.2
20260509033003 70 153 1.0 5.0 0.00 0.41 0.41 93 1011.2
20260509032503 70 158 1.0 3.0 0.00 0.41 0.41 93 1011.2
20260509032003 71 156 1.0 4.0 0.00 0.41 0.41 93 1011.1
20260509031503 71 161 2.0 6.0 0.00 0.41 0.41 93 1011.1
20260509031003 71 162 2.0 6.0 0.00 0.41 0.41 93 1011.1
20260509030503 71 147 1.0 4.0 0.00 0.41 0.41 93 1011.2
20260509030025 71 132 1.0 4.0 0.00 0.41 0.41 93 1011.2
20260509025503 71 130 1.0 4.0 0.00 0.41 0.41 93 1011.0
20260509025003 71 125 1.0 3.0 0.00 0.41 0.41 93 1011.0
20260509024503 71 128 2.0 3.0 0.00 0.41 0.41 93 1010.9
20260509024003 70 135 1.0 3.0 0.00 0.41 0.41 93 1010.9
20260509023503 70 140 1.0 3.0 0.00 0.41 0.41 93 1010.8
20260509023024 70 156 1.0 2.0 0.00 0.41 0.41 93 1010.8
20260509022503 70 135 1.0 3.0 0.00 0.41 0.41 93 1010.5
20260509022003 70 121 1.0 4.0 0.00 0.41 0.41 93 1010.5
20260509021524 70 124 1.0 4.0 0.00 0.41 0.41 93 1010.4
20260509021024 70 135 1.0 4.0 0.00 0.41 0.41 93 1010.3
20260509020503 70 164 1.0 4.0 0.00 0.41 0.41 93 1010.4
20260509020003 70 171 1.0 4.0 0.00 0.41 0.41 93 1010.4
20260509015524 70 171 1.0 4.0 0.00 0.41 0.41 93 1010.2
20260509015003 70 181 1.0 4.0 0.00 0.41 0.41 93 1010.2
20260509014503 70 193 1.0 3.0 0.00 0.41 0.41 93 1010.2
20260509014003 70 197 1.0 3.0 0.00 0.41 0.41 93 1010.3
20260509013503 70 191 0.0 2.0 0.00 0.41 0.41 93 1010.3
20260509013003 71 0 0.0 0.0 0.00 0.41 0.41 93 1010.1
20260509012503 71 0 0.0 0.0 0.00 0.41 0.41 93 1010.2
20260509012003 71 0 0.0 0.0 0.00 0.41 0.41 93 1010.2
20260509011503 71 162 0.0 1.0 0.00 0.41 0.41 92 1010.3
20260509011024 71 162 0.0 1.0 0.00 0.41 0.41 92 1010.4
20260509010503 72 0 0.0 0.0 0.00 0.41 0.41 92 1010.5
20260509010004 72 162 0.0 1.0 0.00 0.41 0.41 92 1010.5
20260509005503 72 162 0.0 1.0 0.00 0.41 0.41 92 1010.6
20260509005003 72 122 0.0 1.0 0.00 0.41 0.41 92 1010.4
20260509004503 72 129 0.0 1.0 0.00 0.41 0.41 91 1010.4
20260509004003 73 141 0.0 2.0 0.00 0.41 0.41 91 1010.3
20260509003504 73 160 1.0 2.0 0.00 0.41 0.41 91 1010.5
20260509003024 73 133 1.0 2.0 0.00 0.41 0.41 91 1010.7
20260509002503 73 95 1.0 2.0 0.00 0.41 0.41 91 1010.7
20260509002024 73 170 1.0 2.0 0.00 0.41 0.41 91 1010.7
20260509001503 73 181 1.0 2.0 0.00 0.41 0.41 91 1010.9
20260509001004 73 181 0.0 2.0 0.00 0.41 0.41 90 1011.1
20260509000504 73 181 1.0 2.0 0.00 0.41 0.41 90 1011.2
20260509000004 73 169 1.0 2.0 0.00 0.41 0.41 90 1011.2
20260508235503 73 167 1.0 2.0 0.00 0.41 0.41 89 1011.1
20260508235003 74 16 1.0 3.0 0.00 0.41 0.41 89 1011.2
20260508234503 74 359 1.0 3.0 0.00 0.41 0.41 89 1011.1
20260508234003 74 360 0.0 2.0 0.00 0.41 0.41 89 1011.0
20260508233503 74 272 1.0 2.0 0.00 0.41 0.41 89 1011.0
20260508233003 74 189 0.0 2.0 0.00 0.41 0.41 88 1011.1
20260508232504 74 124 0.0 2.0 0.00 0.41 0.41 89 1010.9
20260508232003 74 142 1.0 4.0 0.00 0.41 0.41 88 1011.0
20260508231503 74 143 1.0 4.0 0.00 0.41 0.41 88 1011.1
20260508231003 74 66 1.0 3.0 0.00 0.41 0.41 88 1011.1
20260508230503 74 354 1.0 3.0 0.00 0.41 0.41 89 1011.1
20260508230024 74 349 1.0 2.0 0.00 0.41 0.41 88 1011.0
20260508225503 74 350 1.0 2.0 0.00 0.41 0.41 88 1011.0
20260508225003 74 357 1.0 4.0 0.00 0.41 0.41 88 1010.9
20260508224503 74 359 1.0 4.0 0.00 0.41 0.41 88 1011.0
20260508224003 74 347 1.0 2.0 0.00 0.41 0.41 87 1011.1
20260508223524 75 262 1.0 2.0 0.00 0.41 0.41 87 1011.0
20260508223003 75 204 1.0 3.0 0.00 0.41 0.41 87 1010.9
20260508222503 75 164 1.0 3.0 0.00 0.41 0.41 87 1010.9
20260508222003 75 100 2.0 3.0 0.00 0.41 0.41 87 1010.9
20260508221503 75 26 1.0 3.0 0.00 0.41 0.41 88 1011.0
20260508221003 74 354 1.0 3.0 0.00 0.41 0.41 89 1010.9
20260508220503 74 352 1.0 2.0 0.00 0.41 0.41 89 1011.0
20260508220003 73 359 1.0 4.0 0.00 0.41 0.41 90 1011.2
20260508215503 73 356 1.0 4.0 0.00 0.41 0.41 89 1011.2
20260508215024 73 353 1.0 3.0 0.00 0.41 0.41 90 1011.2
20260508214503 72 354 1.0 2.0 0.00 0.41 0.41 89 1011.3
20260508214003 72 3 1.0 3.0 0.00 0.41 0.41 89 1011.3
20260508213503 73 211 1.0 3.0 0.00 0.41 0.41 90 1011.4
20260508213003 72 221 1.0 3.0 0.00 0.41 0.41 89 1011.4
20260508212503 73 200 1.0 4.0 0.00 0.41 0.41 89 1011.5
20260508212024 73 187 1.0 4.0 0.00 0.41 0.41 89 1011.6
20260508211503 73 168 2.0 6.0 0.00 0.41 0.41 89 1011.7
20260508211024 73 84 2.0 6.0 0.00 0.41 0.41 89 1011.6
20260508210503 73 40 2.0 5.0 0.00 0.41 0.41 89 1011.7
20260508210003 73 35 2.0 5.0 0.00 0.41 0.41 89 1011.8
20260508205503 73 359 1.0 3.0 0.00 0.41 0.41 89 1011.8
20260508205003 73 358 1.0 2.0 0.00 0.41 0.41 88 1012.0
20260508204503 73 2 1.0 4.0 0.00 0.41 0.41 88 1012.0
20260508204003 73 5 1.0 4.0 0.00 0.41 0.41 88 1012.0
20260508203503 73 258 1.0 6.0 0.00 0.41 0.41 88 1012.1
20260508203003 73 311 2.0 6.0 0.00 0.41 0.41 90 1012.1
20260508202503 73 1 1.0 4.0 0.00 0.41 0.41 90 1012.1
20260508202003 72 2 1.0 4.0 0.00 0.41 0.41 91 1012.1
20260508201503 72 360 2.0 4.0 0.00 0.41 0.41 91 1012.3
20260508201003 71 121 2.0 3.0 0.00 0.41 0.41 92 1012.2
20260508200503 71 142 2.0 5.0 0.00 0.41 0.41 92 1012.3
20260508200003 70 134 2.0 5.0 0.00 0.41 0.41 93 1012.3
20260508195503 70 83 2.0 5.0 0.00 0.41 0.41 93 1012.2
20260508195003 70 93 1.0 5.0 0.00 0.41 0.41 93 1012.2
20260508194503 69 135 1.0 3.0 0.00 0.41 0.41 93 1012.3
20260508194024 69 109 1.0 3.0 0.00 0.41 0.41 93 1012.3
20260508193503 69 60 1.0 3.0 0.00 0.41 0.41 93 1012.2
20260508193003 68 27 1.0 3.0 0.00 0.41 0.41 93 1012.3
20260508192503 68 45 1.0 3.0 0.00 0.41 0.41 93 1012.3
20260508192003 68 65 1.0 2.0 0.00 0.41 0.41 93 1012.3
20260508191503 68 79 0.0 2.0 0.00 0.41 0.41 93 1012.3
20260508191003 68 116 1.0 3.0 0.00 0.41 0.41 93 1012.6
20260508190503 68 90 1.0 3.0 0.00 0.41 0.41 93 1012.4
20260508190003 67 71 1.0 3.0 0.00 0.41 0.41 93 1012.5
20260508185503 68 57 1.0 4.0 0.00 0.41 0.41 92 1012.5
20260508185003 67 10 2.0 4.0 0.00 0.41 0.41 92 1012.7
20260508184504 67 8 2.0 4.0 0.00 0.41 0.41 92 1012.8
20260508184024 67 44 1.0 3.0 0.00 0.41 0.41 92 1013.0
20260508183503 67 40 1.0 3.0 0.00 0.41 0.41 92 1013.0
20260508183003 66 58 1.0 3.0 0.00 0.41 0.41 92 1013.1
20260508182503 66 113 1.0 2.0 0.00 0.41 0.41 92 1013.3
20260508182003 66 98 1.0 3.0 0.00 0.41 0.41 92 1013.5
20260508181524 66 122 1.0 3.0 0.00 0.41 0.41 92 1013.6
20260508181003 66 146 1.0 4.0 0.00 0.41 0.41 92 1013.7
20260508180503 66 129 1.0 4.0 0.00 0.41 0.41 92 1013.8
20260508180003 66 111 1.0 3.0 0.03 0.41 0.41 92 1013.8
20260508175503 66 77 1.0 3.0 0.04 0.41 0.41 91 1013.7
20260508175003 66 76 1.0 2.0 0.04 0.41 0.41 91 1013.9
20260508174524 66 105 1.0 3.0 0.04 0.41 0.41 91 1013.8
20260508174003 66 70 1.0 3.0 0.05 0.41 0.41 91 1013.9
20260508173503 65 23 2.0 5.0 0.06 0.41 0.41 91 1014.0
20260508173024 65 29 2.0 5.0 0.06 0.41 0.41 91 1014.1
20260508172524 65 69 1.0 4.0 0.07 0.41 0.41 91 1013.9
20260508172003 65 65 1.0 4.0 0.18 0.41 0.41 91 1014.0
20260508171503 64 23 1.0 4.0 0.18 0.41 0.41 91 1014.2
20260508171003 64 16 1.0 4.0 0.19 0.41 0.41 91 1014.3
20260508170524 64 36 1.0 4.0 0.20 0.41 0.41 91 1014.3
20260508170003 63 14 2.0 6.0 0.20 0.38 0.38 91 1014.4
20260508165503 63 353 2.0 6.0 0.20 0.37 0.37 92 1014.3
20260508165003 63 352 2.0 5.0 0.21 0.37 0.37 91 1014.7
20260508164524 63 360 2.0 8.0 0.21 0.37 0.37 91 1014.5
20260508164003 63 347 3.0 9.0 0.21 0.36 0.36 92 1014.5
20260508163503 63 333 3.0 9.0 0.21 0.35 0.35 92 1014.7
20260508163003 63 342 2.0 6.0 0.22 0.35 0.35 92 1014.7
20260508162524 63 357 2.0 5.0 0.21 0.34 0.34 92 1014.5
20260508162003 63 338 2.0 3.0 0.10 0.23 0.23 92 1014.7
20260508161503 63 5 1.0 4.0 0.10 0.23 0.23 92 1014.9
20260508161003 63 114 1.0 4.0 0.09 0.22 0.22 92 1014.6
20260508160524 63 105 1.0 3.0 0.08 0.21 0.21 92 1014.5
20260508160003 62 130 0.0 2.0 0.05 0.18 0.18 92 1015.1
20260508155003 62 77 1.0 3.0 0.05 0.16 0.16 92 1015.3
20260508154503 62 94 1.0 3.0 0.05 0.16 0.16 92 1015.3
20260508154003 62 94 1.0 2.0 0.05 0.15 0.15 92 1015.1
20260508153503 62 79 1.0 2.0 0.05 0.14 0.14 92 1015.0
20260508153003 62 143 1.0 4.0 0.05 0.13 0.13 92 1015.6
20260508152503 62 150 1.0 4.0 0.06 0.13 0.13 93 1015.6
20260508152003 62 141 1.0 3.0 0.06 0.13 0.13 92 1015.4
20260508151504 62 150 1.0 3.0 0.07 0.13 0.13 92 1015.8
20260508151004 62 165 1.0 3.0 0.07 0.13 0.13 93 1015.9
20260508150504 62 282 1.0 4.0 0.08 0.13 0.13 93 1015.9
20260508150005 62 314 2.0 5.0 0.09 0.13 0.13 93 1015.8
20260508145504 62 328 2.0 5.0 0.08 0.12 0.12 93 1015.4
20260508145005 62 351 1.0 4.0 0.09 0.11 0.11 93 1014.8
20260508144505 62 33 1.0 3.0 0.11 0.11 0.11 93 1014.9
20260508144025 62 355 2.0 4.0 0.10 0.10 0.10 93 1015.0
20260508143504 62 332 3.0 9.0 0.09 0.09 0.09 93 1015.4
20260508143025 62 335 4.0 10.0 0.08 0.08 0.08 93 1015.6
20260508142504 62 332 4.0 10.0 0.07 0.07 0.07 93 1015.6
20260508142005 62 327 3.0 9.0 0.07 0.07 0.07 93 1015.7
20260508141504 62 144 3.0 7.0 0.06 0.06 0.06 93 1015.1
20260508141005 62 131 3.0 7.0 0.06 0.06 0.06 93 1015.1
20260508140504 62 119 3.0 6.0 0.05 0.05 0.05 93 1014.8
20260508140004 62 127 2.0 4.0 0.04 0.04 0.04 93 1015.5
20260508135504 62 135 2.0 4.0 0.04 0.04 0.04 93 1016.4
20260508135004 62 174 2.0 6.0 0.02 0.02 0.02 93 1016.5
20260508134528 62 248 2.0 6.0 0.00 0.00 0.00 93 1017.7
20260508134004 62 291 1.0 4.0 0.00 0.00 0.00 93 1016.8
20260508133504 61 160 2.0 4.0 0.00 0.00 0.00 93 1016.1
20260508133004 61 156 2.0 4.0 0.00 0.00 0.00 93 1015.3
20260508132504 61 215 2.0 4.0 0.00 0.00 0.00 93 1015.9
20260508132004 61 292 2.0 7.0 0.00 0.00 0.00 93 1016.1
20260508131504 61 298 2.0 7.0 0.00 0.00 0.00 93 1015.5
20260508131004 61 323 1.0 3.0 0.00 0.00 0.00 93 1015.2
20260508130525 61 332 1.0 3.0 0.00 0.00 0.00 93 1014.2
20260508130004 61 325 1.0 3.0 0.00 0.00 0.00 93 1014.0
20260508125504 61 32 1.0 2.0 0.00 0.00 0.00 93 1014.4
20260508125004 61 62 1.0 2.0 0.00 0.00 0.00 93 1014.1
20260508124504 61 62 1.0 2.0 0.00 0.00 0.00 93 1014.2
20260508124004 61 96 1.0 2.0 0.00 0.00 0.00 93 1014.9
20260508123504 61 130 1.0 2.0 0.00 0.00 0.00 93 1014.7
20260508123004 61 141 1.0 2.0 0.00 0.00 0.00 93 1014.6
20260508122504 61 116 0.0 2.0 0.00 0.00 0.00 93 1014.7
20260508122025 61 110 0.0 2.0 0.00 0.00 0.00 93 1014.9
20260508121504 61 121 0.0 2.0 0.00 0.00 0.00 94 1014.9
20260508121004 60 289 0.0 1.0 0.00 0.00 0.00 93 1015.1
20260508120504 60 305 1.0 4.0 0.00 0.00 0.00 93 1015.1
20260508120025 60 330 1.0 4.0 0.00 0.00 0.00 93 1015.2
20260508115504 60 30 1.0 3.0 0.00 0.00 0.00 94 1015.1
20260508115004 60 355 1.0 2.0 0.00 0.00 0.00 94 1014.4
20260508114504 60 289 0.0 2.0 0.00 0.00 0.00 94 1014.6
20260508114004 60 254 0.0 1.0 0.00 0.00 0.00 94 1014.6
20260508113504 60 253 0.0 1.0 0.00 0.00 0.00 94 1014.7
20260508113005 60 243 0.0 1.0 0.00 0.00 0.00 94 1014.8
20260508112504 60 311 0.0 2.0 0.00 0.00 0.00 94 1015.0
20260508112004 60 324 1.0 3.0 0.00 0.00 0.00 94 1015.3
20260508111504 60 327 1.0 3.0 0.00 0.00 0.00 94 1015.4
20260508111004 60 345 1.0 3.0 0.00 0.00 0.00 94 1015.1
20260508110504 60 343 1.0 3.0 0.00 0.00 0.00 93 1015.2
20260508110004 60 339 1.0 3.0 0.00 0.00 0.00 93 1015.2
20260508105525 61 330 0.0 2.0 0.00 0.00 0.00 93 1015.0
20260508105004 61 330 1.0 2.0 0.00 0.00 0.00 93 1015.0
20260508104525 61 319 1.0 2.0 0.00 0.00 0.00 93 1015.2
20260508104004 61 280 1.0 2.0 0.00 0.00 0.00 93 1015.1
20260508103504 61 61 1.0 2.0 0.00 0.00 0.00 93 1014.9
20260508103004 61 44 1.0 2.0 0.00 0.00 0.00 93 1014.7
20260508102504 61 32 0.0 2.0 0.00 0.00 0.00 93 1015.0
20260508102004 61 345 1.0 2.0 0.00 0.00 0.00 93 1015.4
20260508101504 61 329 1.0 3.0 0.00 0.00 0.00 93 1015.6
20260508101004 61 315 0.0 3.0 0.00 0.00 0.00 93 1015.8
20260508100504 61 311 0.0 2.0 0.00 0.00 0.00 93 1015.4
20260508100004 61 311 1.0 2.0 0.00 0.00 0.00 93 1015.5
20260508095504 61 311 0.0 2.0 0.00 0.00 0.00 93 1015.4
20260508095004 61 318 0.0 2.0 0.00 0.00 0.00 93 1015.4
20260508094504 61 339 0.0 2.0 0.00 0.00 0.00 93 1015.2
20260508094004 61 359 1.0 3.0 0.00 0.00 0.00 93 1015.1
20260508093504 61 340 2.0 3.0 0.00 0.00 0.00 93 1014.8
20260508093004 61 321 1.0 3.0 0.00 0.00 0.00 93 1015.0
20260508092504 61 312 1.0 2.0 0.00 0.00 0.00 93 1014.8
20260508092025 61 312 0.0 2.0 0.00 0.00 0.00 93 1014.7
20260508091504 61 312 0.0 2.0 0.00 0.00 0.00 93 1014.7
20260508091004 61 326 0.0 2.0 0.00 0.00 0.00 93 1014.9
20260508090504 61 334 0.0 2.0 0.00 0.00 0.00 93 1014.9
20260508090004 61 0 0.0 0.0 0.00 0.00 0.00 93 1014.8
20260508085504 61 333 0.0 1.0 0.00 0.00 0.00 93 1014.7
20260508085004 61 333 0.0 1.0 0.00 0.00 0.00 93 1014.9
20260508084504 61 333 0.0 1.0 0.00 0.00 0.00 93 1014.9
20260508084025 61 323 0.0 2.0 0.00 0.00 0.00 93 1015.1
20260508083504 61 328 0.0 2.0 0.00 0.00 0.00 93 1015.2
20260508083004 61 22 0.0 1.0 0.00 0.00 0.00 93 1015.1
20260508082525 61 25 0.0 1.0 0.00 0.00 0.00 93 1015.0
20260508082004 60 24 0.0 2.0 0.00 0.00 0.00 93 1015.0
20260508081504 60 360 0.0 2.0 0.00 0.00 0.00 93 1015.3
20260508081004 60 355 1.0 3.0 0.00 0.00 0.00 93 1015.6
20260508080504 60 336 1.0 4.0 0.00 0.00 0.00 93 1015.5
20260508080004 60 326 1.0 4.0 0.00 0.00 0.00 93 1015.7
20260508075504 60 320 0.0 2.0 0.00 0.00 0.00 93 1015.5
20260508075004 60 320 1.0 1.0 0.00 0.00 0.00 93 1015.6
20260508074504 60 320 0.0 1.0 0.00 0.00 0.00 93 1015.6
20260508074004 60 320 0.0 1.0 0.00 0.00 0.00 93 1015.6
20260508073525 60 320 0.0 2.0 0.00 0.00 0.00 93 1015.6
20260508073004 60 320 0.0 2.0 0.00 0.00 0.00 93 1015.6
20260508072504 60 320 0.0 1.0 0.00 0.00 0.00 93 1015.5
20260508072004 60 320 0.0 1.0 0.00 0.00 0.00 93 1015.5
20260508071504 60 320 0.0 1.0 0.00 0.00 0.00 93 1015.6
20260508071004 60 320 0.0 1.0 0.00 0.00 0.00 93 1015.5
20260508070504 60 320 0.0 1.0 0.00 0.00 0.00 93 1015.6
20260508070004 60 320 0.0 2.0 0.00 0.00 0.00 93 1015.5
20260508065504 60 320 1.0 2.0 0.00 0.00 0.00 93 1015.5
20260508065004 60 320 1.0 2.0 0.00 0.00 0.00 93 1015.7
20260508064504 60 320 0.0 2.0 0.00 0.00 0.00 93 1015.7
20260508064004 60 324 1.0 2.0 0.00 0.00 0.00 93 1016.0
20260508063504 60 331 1.0 3.0 0.00 0.00 0.00 93 1015.9
20260508063004 61 324 1.0 4.0 0.00 0.00 0.00 93 1015.7
20260508062504 61 295 1.0 4.0 0.00 0.00 0.00 93 1015.7
20260508062004 61 101 1.0 3.0 0.00 0.00 0.00 93 1015.3
20260508061504 61 345 1.0 4.0 0.00 0.00 0.00 93 1015.3
20260508061025 61 335 1.0 4.0 0.00 0.00 0.00 93 1015.7
20260508060505 61 342 1.0 4.0 0.00 0.00 0.00 93 1015.6
20260508060004 61 352 1.0 4.0 0.00 0.00 0.00 92 1015.6
20260508055504 61 169 1.0 3.0 0.00 0.00 0.00 92 1015.5
20260508055004 61 287 1.0 2.0 0.00 0.00 0.00 92 1015.6
20260508054504 61 312 1.0 2.0 0.00 0.00 0.00 92 1016.3
20260508054004 61 355 0.0 2.0 0.00 0.00 0.00 92 1016.1
20260508053504 61 355 0.0 2.0 0.00 0.00 0.00 92 1015.7
20260508053004 61 0 0.0 0.0 0.00 0.00 0.00 92 1016.0
20260508052504 61 355 0.0 1.0 0.00 0.00 0.00 92 1016.1
20260508052004 61 355 0.0 1.0 0.00 0.00 0.00 92 1016.2
20260508051504 61 337 2.0 5.0 0.00 0.00 0.00 92 1016.1
20260508051004 61 339 2.0 5.0 0.00 0.00 0.00 92 1016.2
20260508050504 62 121 1.0 4.0 0.00 0.00 0.00 92 1016.2
20260508050004 62 73 1.0 2.0 0.00 0.00 0.00 92 1015.7
20260508045525 61 342 2.0 4.0 0.00 0.00 0.00 92 1015.9
20260508045004 61 335 2.0 4.0 0.00 0.00 0.00 92 1016.1
20260508044504 61 339 1.0 3.0 0.00 0.00 0.00 91 1016.1
20260508044004 62 348 0.0 2.0 0.00 0.00 0.00 92 1015.5
20260508043504 62 348 0.0 2.0 0.00 0.00 0.00 91 1015.5
20260508043004 62 348 0.0 2.0 0.00 0.00 0.00 91 1015.6
20260508042504 62 348 0.0 1.0 0.00 0.00 0.00 91 1015.7
20260508042004 62 348 0.0 1.0 0.00 0.00 0.00 91 1015.7
20260508041504 62 348 0.0 1.0 0.00 0.00 0.00 91 1015.7
20260508041004 62 348 0.0 1.0 0.00 0.00 0.00 91 1016.0
20260508040504 62 348 0.0 1.0 0.00 0.00 0.00 90 1016.0
20260508040004 62 348 0.0 1.0 0.00 0.00 0.00 91 1016.1
20260508035504 62 347 0.0 2.0 0.00 0.00 0.00 91 1016.0
20260508035024 62 347 0.0 2.0 0.00 0.00 0.00 90 1016.0